Location: Fort Worth, Tx
(32.7431°N, 97.3695°W)
Time: 17:54:55
(UTC-04:00)

Transit 4A - Pass Details

Date: 01 March 2024
Orbit: 871 x 972 km, 66.8° (Epoch: 21 April)

Event Time Altitude Azimuth Distance (km) Brightness Sun altitude
Rises 01:08:02 0° 203° (SSW) 3,620 - -63.5°
Reaches altitude 10° 01:10:35 10° 204° (SSW) 2,666 - -63.6°
Maximum altitude 01:16:49 89° 117° (ESE) 938 - -64.0°
Drops below altitude 10° 01:22:55 10° 26° (NNE) 2,610 - -64.3°
Sets 01:25:24 0° 26° (NNE) 3,540 - -64.3°
